Regional Weather Roundup
Issued by NWS

Home | Current Version | Previous Version | Text Only | Print | Product List | Glossary Off
Versions: 1 2 3 4 5 6 7 8 9 10 11 12 13 14 15 16 17 18 19 20 21 22 23 24 25 26 27 28 29 30 31 32 33 34 35 36 37 38 39 40 41 42 43 44 45 46 47 48 49 50

000
ASUS45 KSLC 060310
RWRUT

UTAH REGIONAL WEATHER ROUNDUP
NATIONAL WEATHER SERVICE SALT LAKE CITY UT
900 PM MDT TUE MAY 05 2015

UTZ001>011-023>025-060400-

NORTHERN UTAH

CITY           SKY/WX    TMP DP  RH WIND       PRES   REMARKS
HILL AFB       MOCLDY    59  45  61 NW16G22   29.81R
LOGAN          CLOUDY    56  50  80 W8        29.79R
OGDEN          CLOUDY    58  46  64 NW15      29.79R
PROVO AIRPORT  NOT AVBL
SALT LAKE CITY TSTM      59  50  72 NW20      29.79R
VERNAL         LGT RAIN  51  48  89 CALM      29.82R
WENDOVER       CLOUDY    61  43  51 NE12      29.82R
HEBER CITY     LGT RAIN  50  45  81 SE15      29.84R
WEST JORDAN    CLOUDY    57  48  72 NW16G28   29.82R

$$

UTZ012>022-026-027-060400-

SOUTHERN/CENTRAL UTAH

CITY           SKY/WX    TMP DP  RH WIND       PRES   REMARKS
BLANDING       CLOUDY    52  46  79 CALM      29.94R
BRYCE CANYON   CLOUDY    44  39  82 W7        29.98R
CEDAR CITY     LGT RAIN  46  43  89 S7        29.96R
DELTA          CLOUDY    55  45  68 S10       29.83R
HANKSVILLE     CLOUDY    55  48  76 N16G24    29.83R
MILFORD        RAIN      53  47  79 SW13      29.91R
MOAB/CYNLANDS  MOCLDY    54  51  90 CALM      29.80R
PRICE          CLOUDY    51  47  86 W3        29.84R
ST GEORGE      CLOUDY    66  43  42 NE15G28   29.83R
KANAB          MOCLDY    63  39  42 W13       29.91R

$$

REGIONAL REPORTS     COLORADO/ARIZONA

CITY           SKY/WX    TMP DP  RH WIND       PRES   REMARKS
CRAIG, CO      CLOUDY    52  44  74 W8        29.82R
GRAND JUNCTION CLOUDY    53  51  93 NW3       29.80R
RIFLE          LGT RAIN  51  47  86 NE5       29.82R
MONTROSE       CLOUDY    52  48  86 NW7       29.86R
CORTEZ         LGT RAIN  51  48  89 CALM      29.90R
PAGE, AZ       LGT RAIN  58  51  78 NW15G39   29.86R
GRAND CANYON   PTCLDY    53  42  66 SW10      29.98R
KINGMAN        CLEAR     67  38  34 SW16      29.86R
FLAGSTAFF      MOCLDY    46  45  96 SW12      30.03R

$$

REGIONAL REPORTS    NEVADA/IDAHO/WYOMING

CITY           SKY/WX    TMP DP  RH WIND       PRES   REMARKS
LAS VEGAS, NV  PTCLDY    82  34  17 SW16G25   29.67R
ELY            CLOUDY    52  38  58 W5        29.90R
ELKO           MOCLDY    62  34  35 E6        29.80R
POCATELLO, ID  CLEAR     57  43  59 E7        29.79R
BURLEY         CLOUDY    57  29  34 SW13      29.78R
EVANSTON, WY   MOCLDY    46  42  86 W3        29.88S
ROCK SPRINGS   CLOUDY    49  40  71 NW9       29.84R
KEMMERER       CLOUDY    45  45 100 W9        29.88R

$$



USA.gov is the U.S. government's official web portal to all federal, state and local government web resources and services.